TimeEDT,TemperatureF,Dew PointF,Humidity,Sea Level PressureIn,VisibilityMPH,Wind Direction,Wind SpeedMPH,Gust SpeedMPH,PrecipitationIn,Events,Conditions,WindDirDegrees,DateUTC
12:15 AM,64.4,57.2,77,30.37,10.0,SSE,5.8,-,N/A,,Mostly Cloudy,160,2012-09-13 04:15:00
12:35 AM,64.4,57.2,77,30.37,10.0,South,5.8,-,N/A,,Mostly Cloudy,170,2012-09-13 04:35:00
12:55 AM,62.6,59.0,88,30.37,10.0,South,6.9,-,N/A,,Scattered Clouds,170,2012-09-13 04:55:00
1:15 AM,64.4,59.0,83,30.37,10.0,South,6.9,-,N/A,,Clear,170,2012-09-13 05:15:00
1:35 AM,62.6,59.0,88,30.37,10.0,South,5.8,-,N/A,,Clear,170,2012-09-13 05:35:00
1:55 AM,62.6,59.0,88,30.37,10.0,South,5.8,-,N/A,,Clear,170,2012-09-13 05:55:00
2:15 AM,60.8,57.2,88,30.37,10.0,SSW,3.5,-,N/A,,Clear,200,2012-09-13 06:15:00
2:35 AM,60.8,57.2,88,30.37,10.0,SW,4.6,-,N/A,,Clear,220,2012-09-13 06:35:00
2:55 AM,59.0,59.0,100,30.37,10.0,SW,3.5,-,N/A,,Clear,220,2012-09-13 06:55:00
3:15 AM,59.0,59.0,100,30.37,10.0,Calm,Calm,-,N/A,,Clear,0,2012-09-13 07:15:00
3:35 AM,59.0,59.0,100,30.37,10.0,South,4.6,-,N/A,,Clear,190,2012-09-13 07:35:00
3:55 AM,59.0,59.0,100,30.37,10.0,South,4.6,-,N/A,,Clear,190,2012-09-13 07:55:00
4:15 AM,59.0,59.0,100,30.37,10.0,South,3.5,-,N/A,,Clear,190,2012-09-13 08:15:00
4:35 AM,59.0,59.0,100,30.37,10.0,South,5.8,-,N/A,,Clear,180,2012-09-13 08:35:00
4:55 AM,60.8,59.0,94,30.37,10.0,South,6.9,-,N/A,,Clear,170,2012-09-13 08:55:00
5:15 AM,60.8,57.2,88,30.37,10.0,South,4.6,-,N/A,,Clear,180,2012-09-13 09:15:00
5:35 AM,59.0,57.2,94,30.37,10.0,South,5.8,-,N/A,,Clear,180,2012-09-13 09:35:00
5:55 AM,59.0,57.2,94,30.38,10.0,South,5.8,-,N/A,,Clear,180,2012-09-13 09:55:00
6:15 AM,59.0,55.4,88,30.38,10.0,South,6.9,-,N/A,,Clear,190,2012-09-13 10:15:00
6:35 AM,59.0,55.4,88,30.39,10.0,South,4.6,-,N/A,,Clear,180,2012-09-13 10:35:00
6:55 AM,59.0,53.6,82,30.40,10.0,South,5.8,-,N/A,,Clear,180,2012-09-13 10:55:00
7:15 AM,59.0,53.6,82,30.40,10.0,South,4.6,-,N/A,,Clear,190,2012-09-13 11:15:00
7:35 AM,59.0,53.6,82,30.41,10.0,South,5.8,-,N/A,,Clear,180,2012-09-13 11:35:00
7:55 AM,59.0,53.6,82,30.41,10.0,South,5.8,-,N/A,,Clear,180,2012-09-13 11:55:00
8:15 AM,60.8,55.4,82,30.42,10.0,South,4.6,-,N/A,,Clear,190,2012-09-13 12:15:00
8:35 AM,62.6,57.2,82,30.42,10.0,SSW,4.6,-,N/A,,Clear,200,2012-09-13 12:35:00
8:55 AM,62.6,55.4,77,30.42,10.0,South,4.6,-,N/A,,Clear,180,2012-09-13 12:55:00
9:15 AM,62.6,55.4,77,30.42,10.0,South,3.5,-,N/A,,Clear,190,2012-09-13 13:15:00
9:35 AM,62.6,57.2,82,30.42,10.0,SSW,3.5,-,N/A,,Clear,210,2012-09-13 13:35:00
9:55 AM,64.4,57.2,77,30.43,10.0,SSW,3.5,-,N/A,,Clear,200,2012-09-13 13:55:00
10:15 AM,64.4,57.2,77,30.43,10.0,SSW,3.5,-,N/A,,Clear,200,2012-09-13 14:15:00
10:35 AM,68.0,57.2,68,30.42,10.0,Calm,Calm,-,N/A,,Clear,0,2012-09-13 14:35:00
10:55 AM,69.8,55.4,60,30.43,10.0,Calm,Calm,-,N/A,,Clear,0,2012-09-13 14:55:00
11:15 AM,69.8,59.0,68,30.43,10.0,West,4.6,-,N/A,,Clear,260,2012-09-13 15:15:00
11:35 AM,69.8,59.0,68,30.42,10.0,NNE,3.5,-,N/A,,Clear,20,2012-09-13 15:35:00
11:55 AM,69.8,59.0,68,30.42,10.0,West,4.6,-,N/A,,Clear,270,2012-09-13 15:55:00
12:15 PM,71.6,59.0,64,30.42,10.0,NW,5.8,-,N/A,,Mostly Cloudy,320,2012-09-13 16:15:00
12:35 PM,71.6,60.8,69,30.41,10.0,North,3.5,-,N/A,,Scattered Clouds,350,2012-09-13 16:35:00
12:55 PM,73.4,59.0,61,30.40,10.0,NNE,5.8,-,N/A,,Scattered Clouds,20,2012-09-13 16:55:00
1:15 PM,73.4,59.0,61,30.39,10.0,Calm,Calm,-,N/A,,Scattered Clouds,0,2012-09-13 17:15:00
1:35 PM,73.4,59.0,61,30.38,10.0,NE,8.1,-,N/A,,Clear,40,2012-09-13 17:35:00
1:55 PM,75.2,59.0,57,30.37,10.0,NNE,6.9,-,N/A,,Clear,30,2012-09-13 17:55:00
2:15 PM,75.2,59.0,57,30.37,10.0,NNE,6.9,-,N/A,,Clear,20,2012-09-13 18:15:00
2:35 PM,73.4,59.0,61,30.36,10.0,North,4.6,-,N/A,,Clear,10,2012-09-13 18:35:00
2:55 PM,73.4,59.0,61,30.35,10.0,North,4.6,-,N/A,,Clear,360,2012-09-13 18:55:00
3:15 PM,75.2,59.0,57,30.35,10.0,North,5.8,-,N/A,,Clear,360,2012-09-13 19:15:00
3:35 PM,77.0,59.0,54,30.33,10.0,NNW,5.8,-,N/A,,Clear,340,2012-09-13 19:35:00
3:55 PM,77.0,57.2,50,30.33,10.0,North,5.8,-,N/A,,Scattered Clouds,350,2012-09-13 19:55:00
4:15 PM,77.0,55.4,47,30.33,10.0,NNE,4.6,-,N/A,,Scattered Clouds,30,2012-09-13 20:15:00
4:35 PM,77.0,57.2,50,30.32,10.0,North,5.8,-,N/A,,Scattered Clouds,360,2012-09-13 20:35:00
4:55 PM,77.0,55.4,47,30.32,10.0,NNE,4.6,-,N/A,,Clear,30,2012-09-13 20:55:00
5:15 PM,73.4,57.2,57,30.32,10.0,NNW,3.5,-,N/A,,Scattered Clouds,330,2012-09-13 21:15:00
5:35 PM,71.6,59.0,64,30.32,10.0,Calm,Calm,-,N/A,,Scattered Clouds,0,2012-09-13 21:35:00
5:55 PM,73.4,59.0,61,30.32,10.0,Calm,Calm,-,N/A,,Clear,0,2012-09-13 21:55:00
6:15 PM,71.6,59.0,64,30.32,10.0,North,3.5,-,N/A,,Clear,10,2012-09-13 22:15:00
6:35 PM,71.6,59.0,64,30.32,10.0,Calm,Calm,-,N/A,,Scattered Clouds,0,2012-09-13 22:35:00
6:55 PM,69.8,59.0,68,30.32,10.0,NNE,3.5,-,N/A,,Scattered Clouds,20,2012-09-13 22:55:00
7:15 PM,69.8,59.0,68,30.32,10.0,North,3.5,-,N/A,,Clear,360,2012-09-13 23:15:00
7:35 PM,68.0,57.2,68,30.32,10.0,North,3.5,-,N/A,,Clear,360,2012-09-13 23:35:00
7:55 PM,68.0,57.2,68,30.32,10.0,Calm,Calm,-,N/A,,Clear,0,2012-09-13 23:55:00
8:15 PM,68.0,57.2,68,30.33,10.0,Calm,Calm,-,N/A,,Clear,0,2012-09-14 00:15:00
8:35 PM,68.0,57.2,68,30.33,10.0,Calm,Calm,-,N/A,,Clear,0,2012-09-14 00:35:00
8:55 PM,66.2,55.4,68,30.33,10.0,Calm,Calm,-,N/A,,Clear,0,2012-09-14 00:55:00
9:15 PM,62.6,59.0,88,30.33,10.0,Calm,Calm,-,N/A,,Clear,0,2012-09-14 01:15:00
9:35 PM,62.6,57.2,82,30.33,10.0,Calm,Calm,-,N/A,,Clear,0,2012-09-14 01:35:00
9:55 PM,62.6,57.2,82,30.34,10.0,Calm,Calm,-,N/A,,Scattered Clouds,0,2012-09-14 01:55:00
10:15 PM,62.6,57.2,82,30.34,10.0,Calm,Calm,-,N/A,,Scattered Clouds,0,2012-09-14 02:15:00
10:35 PM,60.8,55.4,82,30.35,10.0,Calm,Calm,-,N/A,,Clear,0,2012-09-14 02:35:00
10:55 PM,60.8,53.6,77,30.35,10.0,Calm,Calm,-,N/A,,Clear,0,2012-09-14 02:55:00
11:15 PM,62.6,53.6,72,30.35,10.0,Calm,Calm,-,N/A,,Clear,0,2012-09-14 03:15:00
11:35 PM,64.4,53.6,68,30.35,10.0,Calm,Calm,-,N/A,,Clear,0,2012-09-14 03:35:00
11:55 PM,62.6,53.6,72,30.35,10.0,SSE,3.5,-,N/A,,Clear,150,2012-09-14 03:55:00